YON495 KBOS-KPTK

Flight info

Callsign YON495
Flight time 1h 44m
Altitude 38000
Route HYLND7 HYLND DCT CAM Q822 GONZZ DCT COLTS OKLND1
Aircraft A319/M-SDE3FGHIRWY/LB1

Departure

Time 2026-05-04 20:41
Airport Boston Logan International Airport (KBOS)

Arrival

Time 2026-05-04 22:26
Airport Oakland County International Airport (KPTK)
Time Latitude Longitude Altitude Speed Heading
2026-05-04 20:27 42.37358 -71.02022 26 ft 0 kts 315°
2026-05-04 20:36 42.37360 -71.02024 28 ft 2 kts 316°
2026-05-04 20:36 42.37383 -71.02035 28 ft 5 kts 355°
2026-05-04 20:36 42.37413 -71.02001 27 ft 7 kts 74°
2026-05-04 20:36 42.37385 -71.01943 26 ft 9 kts 135°
2026-05-04 20:37 42.37337 -71.01877 28 ft 11 kts 135°
2026-05-04 20:37 42.37280 -71.01800 27 ft 13 kts 135°
2026-05-04 20:37 42.37216 -71.01715 26 ft 14 kts 136°
2026-05-04 20:37 42.37139 -71.01614 28 ft 16 kts 135°
2026-05-04 20:38 42.37055 -71.01502 26 ft 18 kts 135°
2026-05-04 20:38 42.36964 -71.01381 26 ft 19 kts 135°
2026-05-04 20:38 42.36888 -71.01251 26 ft 16 kts 93°
2026-05-04 20:38 42.36961 -71.01137 29 ft 17 kts 40°
2026-05-04 20:39 42.37070 -71.01058 26 ft 19 kts 25°
2026-05-04 20:39 42.37191 -71.00978 26 ft 20 kts 26°
2026-05-04 20:39 42.37321 -71.00898 25 ft 21 kts 20°
2026-05-04 20:39 42.37466 -71.00828 27 ft 23 kts 19°
2026-05-04 20:40 42.37617 -71.00755 27 ft 24 kts 19°
2026-05-04 20:40 42.37775 -71.00678 29 ft 25 kts 20°
2026-05-04 20:40 42.37825 -71.00540 26 ft 20 kts 107°
2026-05-04 20:40 42.37764 -71.00488 26 ft 12 kts 197°
2026-05-04 20:41 42.37636 -71.00550 29 ft 48 kts 200°
2026-05-04 20:41 42.37024 -71.00847 28 ft 135 kts 200°
2026-05-04 20:41 42.36088 -71.01300 672 ft 144 kts 202°
2026-05-04 20:41 42.35134 -71.01739 1439 ft 150 kts 197°
2026-05-04 20:42 42.34004 -71.01518 1872 ft 188 kts 159°
2026-05-04 20:42 42.32977 -71.00159 2290 ft 223 kts 135°
2026-05-04 20:42 42.32028 -70.98437 3076 ft 234 kts 124°
2026-05-04 20:42 42.31457 -70.96336 3982 ft 244 kts 103°
2026-05-04 20:43 42.31398 -70.93968 4577 ft 270 kts 83°
2026-05-04 20:43 42.31796 -70.91376 5146 ft 291 kts 78°
2026-05-04 20:43 42.32217 -70.88707 6075 ft 298 kts 78°
2026-05-04 20:43 42.32640 -70.85936 7040 ft 303 kts 77°
2026-05-04 20:44 42.33063 -70.83131 8018 ft 307 kts 76°
2026-05-04 20:44 42.33530 -70.80300 8965 ft 310 kts 69°
2026-05-04 20:44 42.34452 -70.77676 9918 ft 308 kts 51°
2026-05-04 20:44 42.35862 -70.75518 10697 ft 310 kts 35°
2026-05-04 20:45 42.37725 -70.73934 11027 ft 325 kts 17°
2026-05-04 20:45 42.39937 -70.72971 11314 ft 345 kts 11°
2026-05-04 20:45 42.42330 -70.72134 11612 ft 361 kts
2026-05-04 20:45 42.44850 -70.72006 12237 ft 363 kts 350°
2026-05-04 20:46 42.47273 -70.72716 12952 ft 362 kts 336°
2026-05-04 20:46 42.49574 -70.74116 13681 ft 364 kts 330°
2026-05-04 20:46 42.51798 -70.75768 14331 ft 366 kts 322°
2026-05-04 20:46 42.53750 -70.77970 15029 ft 365 kts 312°
2026-05-04 20:47 42.55353 -70.80644 15746 ft 365 kts 302°
2026-05-04 20:47 42.56754 -70.83531 16461 ft 368 kts 302°
2026-05-04 20:47 42.58171 -70.86439 17182 ft 370 kts 302°
2026-05-04 20:47 42.59596 -70.89361 17880 ft 373 kts 302°
2026-05-04 20:48 42.61035 -70.92315 18478 ft 377 kts 302°
2026-05-04 20:48 42.62469 -70.95257 19061 ft 379 kts 302°
2026-05-04 20:48 42.63928 -70.98251 19635 ft 381 kts 303°
2026-05-04 20:48 42.65368 -71.01207 20194 ft 383 kts 303°
2026-05-04 20:49 42.66843 -71.04240 20742 ft 385 kts 303°
2026-05-04 20:49 42.68312 -71.07266 21269 ft 387 kts 303°
2026-05-04 20:49 42.69797 -71.10341 21788 ft 390 kts 303°
2026-05-04 20:49 42.71288 -71.13429 22305 ft 392 kts 303°
2026-05-04 20:50 42.72789 -71.16535 22807 ft 394 kts 303°
2026-05-04 20:50 42.74281 -71.19627 23292 ft 396 kts 304°
2026-05-04 20:50 42.75801 -71.22770 23713 ft 398 kts 304°
2026-05-04 20:50 42.77209 -71.26031 24124 ft 401 kts 297°
2026-05-04 20:51 42.78201 -71.29592 24532 ft 404 kts 288°
2026-05-04 20:51 42.78752 -71.33364 24927 ft 407 kts 281°
2026-05-04 20:51 42.79172 -71.37186 25327 ft 409 kts 281°
2026-05-04 20:51 42.79598 -71.41019 25710 ft 410 kts 281°
2026-05-04 20:52 42.80024 -71.44863 26086 ft 411 kts 281°
2026-05-04 20:52 42.80448 -71.48675 26444 ft 413 kts 281°
2026-05-04 20:52 42.80885 -71.52597 26787 ft 414 kts 281°
2026-05-04 20:52 42.81308 -71.56439 27138 ft 415 kts 281°
2026-05-04 20:53 42.81736 -71.60347 27463 ft 417 kts 281°
2026-05-04 20:53 42.82162 -71.64251 27916 ft 416 kts 281°
2026-05-04 20:53 42.82585 -71.68139 28425 ft 413 kts 281°
2026-05-04 20:53 42.83004 -71.72006 28944 ft 411 kts 281°
2026-05-04 20:54 42.83420 -71.75857 29494 ft 409 kts 281°
2026-05-04 20:54 42.83834 -71.79675 30004 ft 406 kts 281°
2026-05-04 20:54 42.84240 -71.83440 30446 ft 405 kts 281°
2026-05-04 20:54 42.84647 -71.87229 30852 ft 403 kts 281°
2026-05-04 20:55 42.85051 -71.91006 31257 ft 402 kts 281°
2026-05-04 20:55 42.85453 -71.94778 31688 ft 401 kts 282°
2026-05-04 20:55 42.85853 -71.98543 32137 ft 399 kts 282°
2026-05-04 20:55 42.86249 -72.02284 32578 ft 398 kts 282°
2026-05-04 20:56 42.86643 -72.06012 33026 ft 397 kts 282°
2026-05-04 20:56 42.87034 -72.09731 33459 ft 395 kts 282°
2026-05-04 20:56 42.87423 -72.13439 33897 ft 394 kts 282°
2026-05-04 20:56 42.87806 -72.17095 34255 ft 394 kts 282°
2026-05-04 20:57 42.88193 -72.20796 34565 ft 395 kts 282°
2026-05-04 20:57 42.88580 -72.24503 34859 ft 396 kts 282°
2026-05-04 20:57 42.88965 -72.28224 35153 ft 397 kts 281°
2026-05-04 20:57 42.89347 -72.31953 35435 ft 397 kts 281°
2026-05-04 20:58 42.89730 -72.35694 35726 ft 398 kts 281°
2026-05-04 20:58 42.90113 -72.39417 36007 ft 399 kts 281°
2026-05-04 20:58 42.90500 -72.43175 36292 ft 400 kts 280°
2026-05-04 20:58 42.90886 -72.46947 36580 ft 402 kts 280°
2026-05-04 20:59 42.91263 -72.50670 36858 ft 403 kts 279°
2026-05-04 20:59 42.91644 -72.54458 37141 ft 404 kts 279°
2026-05-04 20:59 42.92027 -72.58256 37416 ft 405 kts 279°
2026-05-04 20:59 42.92409 -72.62067 37695 ft 406 kts 279°
2026-05-04 21:00 42.92790 -72.65887 37807 ft 409 kts 279°
2026-05-04 21:00 42.93172 -72.69697 37836 ft 411 kts 279°
2026-05-04 21:00 42.93947 -72.77447 37832 ft 412 kts 279°
2026-05-04 21:01 42.94712 -72.85202 37833 ft 412 kts 278°
2026-05-04 21:01 42.95471 -72.92979 37828 ft 412 kts 278°
2026-05-04 21:02 42.96226 -73.00752 37829 ft 413 kts 279°
2026-05-04 21:02 42.96977 -73.08502 37830 ft 414 kts 279°
2026-05-04 21:03 42.97722 -73.16314 37821 ft 414 kts 278°
2026-05-04 21:03 42.98465 -73.24121 37816 ft 414 kts 278°
2026-05-04 21:04 42.99202 -73.31884 37801 ft 415 kts 279°
2026-05-04 21:04 42.99567 -73.39758 37805 ft 417 kts 274°
2026-05-04 21:05 42.99761 -73.47678 37808 ft 417 kts 274°
2026-05-04 21:05 42.99960 -73.55606 37813 ft 418 kts 274°
2026-05-04 21:06 43.00148 -73.63546 37819 ft 418 kts 274°
2026-05-04 21:06 43.00322 -73.71431 37817 ft 418 kts 274°
2026-05-04 21:07 43.00497 -73.79390 37817 ft 419 kts 274°
2026-05-04 21:07 43.00638 -73.86007 37820 ft 419 kts 274°
2026-05-04 21:08 43.00807 -73.93968 37831 ft 419 kts 274°
2026-05-04 21:08 43.00970 -74.01923 37828 ft 419 kts 274°
2026-05-04 21:09 43.01121 -74.09868 37831 ft 418 kts 274°
2026-05-04 21:09 43.01268 -74.17759 37832 ft 417 kts 274°
2026-05-04 21:10 43.01415 -74.25676 37829 ft 417 kts 275°
2026-05-04 21:10 43.01697 -74.33588 37829 ft 416 kts 276°
2026-05-04 21:11 43.02104 -74.41461 37829 ft 415 kts 277°
2026-05-04 21:11 43.02495 -74.49325 37831 ft 414 kts 277°
2026-05-04 21:12 43.02843 -74.57184 37830 ft 414 kts 276°
2026-05-04 21:12 43.03173 -74.65033 37824 ft 413 kts 276°
2026-05-04 21:13 43.03494 -74.72826 37829 ft 413 kts 276°
2026-05-04 21:13 43.03822 -74.80677 37825 ft 413 kts 276°
2026-05-04 21:14 43.04145 -74.88512 37824 ft 413 kts 276°
2026-05-04 21:14 43.04463 -74.96354 37822 ft 413 kts 276°
2026-05-04 21:15 43.04772 -75.04149 37815 ft 413 kts 276°
2026-05-04 21:15 43.05078 -75.11985 37788 ft 412 kts 276°
2026-05-04 21:16 43.05379 -75.19807 37795 ft 412 kts 276°
2026-05-04 21:16 43.05674 -75.27626 37794 ft 411 kts 276°
2026-05-04 21:17 43.05943 -75.35445 37793 ft 412 kts 276°
2026-05-04 21:17 43.06150 -75.43267 37790 ft 412 kts 275°
2026-05-04 21:18 43.06343 -75.51040 37799 ft 411 kts 275°
2026-05-04 21:18 43.06551 -75.58854 37804 ft 410 kts 275°
2026-05-04 21:19 43.06757 -75.66575 37783 ft 401 kts 275°
2026-05-04 21:19 43.06952 -75.74177 37785 ft 399 kts 275°
2026-05-04 21:20 43.07140 -75.81758 37783 ft 398 kts 275°
2026-05-04 21:20 43.07321 -75.89283 37783 ft 398 kts 275°
2026-05-04 21:21 43.07496 -75.96855 37756 ft 398 kts 275°
2026-05-04 21:21 43.07676 -76.04422 37757 ft 398 kts 275°
2026-05-04 21:22 43.07850 -76.11995 37760 ft 398 kts 275°
2026-05-04 21:22 43.08007 -76.19521 37767 ft 398 kts 275°
2026-05-04 21:23 43.08168 -76.27073 37770 ft 397 kts 275°
2026-05-04 21:23 43.08328 -76.34632 37773 ft 397 kts 275°
2026-05-04 21:24 43.08474 -76.42193 37776 ft 397 kts 274°
2026-05-04 21:24 43.08611 -76.49735 37773 ft 396 kts 274°
2026-05-04 21:25 43.08752 -76.57230 37773 ft 395 kts 274°
2026-05-04 21:25 43.08882 -76.64756 37776 ft 395 kts 274°
2026-05-04 21:26 43.08920 -76.72269 37769 ft 395 kts 271°
2026-05-04 21:26 43.08642 -76.79788 37764 ft 396 kts 269°
2026-05-04 21:27 43.08277 -76.87270 37764 ft 396 kts 270°
2026-05-04 21:27 43.07959 -76.94787 37738 ft 395 kts 270°
2026-05-04 21:28 43.07672 -77.02300 37742 ft 395 kts 270°
2026-05-04 21:28 43.07391 -77.09814 37745 ft 395 kts 270°
2026-05-04 21:29 43.07091 -77.17334 37748 ft 396 kts 270°
2026-05-04 21:29 43.06777 -77.24808 37738 ft 396 kts 269°
2026-05-04 21:30 43.06465 -77.32324 37744 ft 396 kts 269°
2026-05-04 21:30 43.06152 -77.39840 37751 ft 396 kts 269°
2026-05-04 21:31 43.05672 -77.51076 37738 ft 396 kts 269°
2026-05-04 21:32 43.05347 -77.58542 37735 ft 395 kts 269°
2026-05-04 21:32 43.05019 -77.65979 37736 ft 395 kts 269°
2026-05-04 21:33 43.04678 -77.73479 37737 ft 395 kts 269°
2026-05-04 21:33 43.04333 -77.80943 37742 ft 395 kts 269°
2026-05-04 21:34 43.03981 -77.88451 37752 ft 395 kts 269°
2026-05-04 21:34 43.03631 -77.95953 37740 ft 395 kts 269°
2026-05-04 21:35 43.03280 -78.03459 37736 ft 395 kts 268°
2026-05-04 21:35 43.02921 -78.10902 37739 ft 396 kts 268°
2026-05-04 21:36 43.02557 -78.18411 37742 ft 396 kts 268°
2026-05-04 21:36 43.02180 -78.25919 37730 ft 396 kts 268°
2026-05-04 21:37 43.01801 -78.33435 37739 ft 396 kts 268°
2026-05-04 21:37 43.01416 -78.40946 37742 ft 396 kts 268°
2026-05-04 21:38 43.01028 -78.48413 37742 ft 396 kts 268°
2026-05-04 21:38 43.00636 -78.55925 37740 ft 396 kts 268°
2026-05-04 21:39 43.00245 -78.63361 37735 ft 396 kts 268°
2026-05-04 21:39 42.99838 -78.70878 37737 ft 396 kts 268°
2026-05-04 21:40 42.99427 -78.78390 37727 ft 401 kts 268°
2026-05-04 21:40 42.99011 -78.86006 37723 ft 402 kts 268°
2026-05-04 21:41 42.98597 -78.93605 37486 ft 401 kts 268°
2026-05-04 21:41 42.98388 -78.97408 37219 ft 399 kts 268°
2026-05-04 21:41 42.98178 -79.01174 36945 ft 397 kts 268°
2026-05-04 21:41 42.97965 -79.04920 36675 ft 394 kts 268°
2026-05-04 21:42 42.97752 -79.08647 36408 ft 391 kts 268°
2026-05-04 21:42 42.97544 -79.12296 36151 ft 388 kts 268°
2026-05-04 21:42 42.97331 -79.15965 35889 ft 386 kts 268°
2026-05-04 21:42 42.97118 -79.19619 35618 ft 384 kts 268°
2026-05-04 21:43 42.96902 -79.23241 35365 ft 382 kts 268°
2026-05-04 21:43 42.96686 -79.26844 35113 ft 380 kts 268°
2026-05-04 21:43 42.96476 -79.30386 34864 ft 378 kts 268°
2026-05-04 21:43 42.96270 -79.33955 34617 ft 376 kts 269°
2026-05-04 21:44 42.96107 -79.37506 34370 ft 374 kts 269°
2026-05-04 21:44 42.95970 -79.41042 34131 ft 372 kts 270°
2026-05-04 21:44 42.95846 -79.44565 33873 ft 370 kts 270°
2026-05-04 21:44 42.95722 -79.48072 33622 ft 368 kts 270°
2026-05-04 21:45 42.95596 -79.51561 33348 ft 366 kts 270°
2026-05-04 21:45 42.95461 -79.55027 33073 ft 365 kts 270°
2026-05-04 21:45 42.95319 -79.58488 32801 ft 364 kts 269°
2026-05-04 21:45 42.95173 -79.61937 32531 ft 363 kts 269°
2026-05-04 21:46 42.95026 -79.65376 32262 ft 362 kts 269°
2026-05-04 21:46 42.94881 -79.68766 31990 ft 361 kts 269°
2026-05-04 21:46 42.94734 -79.72198 31729 ft 360 kts 269°
2026-05-04 21:46 42.94591 -79.75599 31463 ft 359 kts 269°
2026-05-04 21:47 42.94445 -79.79000 31201 ft 357 kts 269°
2026-05-04 21:47 42.94300 -79.82342 30932 ft 356 kts 269°
2026-05-04 21:47 42.94154 -79.85711 30692 ft 355 kts 269°
2026-05-04 21:47 42.94003 -79.89066 30440 ft 354 kts 268°
2026-05-04 21:48 42.93851 -79.92413 30188 ft 353 kts 268°
2026-05-04 21:48 42.93701 -79.95756 29942 ft 352 kts 268°
2026-05-04 21:48 42.93554 -79.99085 29689 ft 351 kts 268°
2026-05-04 21:48 42.93412 -80.02366 29398 ft 349 kts 268°
2026-05-04 21:49 42.93268 -80.05666 29118 ft 347 kts 268°
2026-05-04 21:49 42.93127 -80.08945 28837 ft 345 kts 268°
2026-05-04 21:49 42.92985 -80.12207 28558 ft 343 kts 268°
2026-05-04 21:49 42.92840 -80.15451 28282 ft 341 kts 268°
2026-05-04 21:50 42.92694 -80.18674 28009 ft 339 kts 268°
2026-05-04 21:50 42.92549 -80.21872 27740 ft 337 kts 268°
2026-05-04 21:50 42.92402 -80.25054 27473 ft 335 kts 268°
2026-05-04 21:50 42.92253 -80.28232 27208 ft 333 kts 268°
2026-05-04 21:51 42.92105 -80.31379 26946 ft 331 kts 268°
2026-05-04 21:51 42.91961 -80.34470 26680 ft 329 kts 268°
2026-05-04 21:51 42.91817 -80.37591 26421 ft 328 kts 268°
2026-05-04 21:51 42.91673 -80.40690 26131 ft 326 kts 268°
2026-05-04 21:52 42.91527 -80.43770 25825 ft 324 kts 268°
2026-05-04 21:52 42.91374 -80.46919 25526 ft 347 kts 267°
2026-05-04 21:52 42.91207 -80.50334 25127 ft 372 kts 267°
2026-05-04 21:52 42.91034 -80.53833 24688 ft 366 kts 267°
2026-05-04 21:53 42.90863 -80.57259 24259 ft 359 kts 267°
2026-05-04 21:53 42.90695 -80.60625 23835 ft 353 kts 267°
2026-05-04 21:53 42.90529 -80.63913 23404 ft 350 kts 267°
2026-05-04 21:53 42.90362 -80.67212 22950 ft 347 kts 267°
2026-05-04 21:54 42.90193 -80.70486 22455 ft 344 kts 266°
2026-05-04 21:54 42.90024 -80.73735 21970 ft 342 kts 266°
2026-05-04 21:54 42.89857 -80.76960 21490 ft 340 kts 266°
2026-05-04 21:54 42.89690 -80.80165 21028 ft 338 kts 266°
2026-05-04 21:55 42.89523 -80.83357 20566 ft 336 kts 266°
2026-05-04 21:55 42.89360 -80.86525 20112 ft 334 kts 266°
2026-05-04 21:55 42.89223 -80.89688 19664 ft 333 kts 267°
2026-05-04 21:55 42.89113 -80.92829 19221 ft 331 kts 267°
2026-05-04 21:56 42.89016 -80.95916 18803 ft 329 kts 267°
2026-05-04 21:56 42.88920 -80.99028 18372 ft 327 kts 267°
2026-05-04 21:56 42.88823 -81.02126 17945 ft 325 kts 266°
2026-05-04 21:56 42.88720 -81.05198 17460 ft 324 kts 266°
2026-05-04 21:57 42.88614 -81.08251 16968 ft 321 kts 266°
2026-05-04 21:57 42.88506 -81.11282 16509 ft 319 kts 266°
2026-05-04 21:57 42.88398 -81.14283 16107 ft 314 kts 266°
2026-05-04 21:57 42.88288 -81.17237 15725 ft 310 kts 266°
2026-05-04 21:58 42.88179 -81.20151 15347 ft 305 kts 266°
2026-05-04 21:58 42.88108 -81.22059 15092 ft 303 kts 266°
2026-05-04 21:58 42.88001 -81.24910 14724 ft 299 kts 266°
2026-05-04 21:58 42.87860 -81.28638 14244 ft 295 kts 266°
2026-05-04 21:59 42.87755 -81.31413 13948 ft 290 kts 266°
2026-05-04 21:59 42.87653 -81.34121 13709 ft 283 kts 266°
2026-05-04 21:59 42.87584 -81.35924 13541 ft 279 kts 266°
2026-05-04 21:59 42.87484 -81.38509 13311 ft 273 kts 266°
2026-05-04 22:00 42.87386 -81.41069 13071 ft 267 kts 266°
2026-05-04 22:00 42.87289 -81.43574 12833 ft 262 kts 265°
2026-05-04 22:00 42.87194 -81.46032 12598 ft 258 kts 265°
2026-05-04 22:00 42.87096 -81.48470 12370 ft 256 kts 265°
2026-05-04 22:01 42.86999 -81.50893 12130 ft 256 kts 265°
2026-05-04 22:01 42.86901 -81.53318 11899 ft 256 kts 265°
2026-05-04 22:01 42.86803 -81.55730 11658 ft 255 kts 265°
2026-05-04 22:01 42.86706 -81.58138 11444 ft 254 kts 265°
2026-05-04 22:02 42.86608 -81.60541 11218 ft 253 kts 265°
2026-05-04 22:02 42.86511 -81.62914 11002 ft 253 kts 265°
2026-05-04 22:02 42.86414 -81.65301 10774 ft 252 kts 265°
2026-05-04 22:02 42.86314 -81.67687 10554 ft 250 kts 265°
2026-05-04 22:03 42.86215 -81.70047 10335 ft 248 kts 265°
2026-05-04 22:03 42.86116 -81.72398 10117 ft 248 kts 266°
2026-05-04 22:03 42.86018 -81.74742 9900 ft 247 kts 265°
2026-05-04 22:03 42.85920 -81.77046 9688 ft 246 kts 265°
2026-05-04 22:04 42.85822 -81.79369 9471 ft 245 kts 265°
2026-05-04 22:04 42.85727 -81.81683 9216 ft 244 kts 265°
2026-05-04 22:04 42.85585 -81.83992 8983 ft 243 kts 259°
2026-05-04 22:04 42.85201 -81.86245 8746 ft 244 kts 256°
2026-05-04 22:05 42.84802 -81.88489 8509 ft 243 kts 256°
2026-05-04 22:05 42.84406 -81.90721 8285 ft 242 kts 256°
2026-05-04 22:05 42.84010 -81.92956 8054 ft 241 kts 256°
2026-05-04 22:05 42.83618 -81.95170 7827 ft 240 kts 256°
2026-05-04 22:06 42.83225 -81.97387 7589 ft 240 kts 256°
2026-05-04 22:06 42.82978 -81.99612 7368 ft 241 kts 264°
2026-05-04 22:06 42.82850 -82.01888 7146 ft 241 kts 264°
2026-05-04 22:06 42.82719 -82.04158 6933 ft 240 kts 264°
2026-05-04 22:07 42.82586 -82.06426 6713 ft 240 kts 264°
2026-05-04 22:07 42.82453 -82.08692 6494 ft 240 kts 263°
2026-05-04 22:07 42.82320 -82.10963 6270 ft 240 kts 263°
2026-05-04 22:07 42.82186 -82.13234 6033 ft 240 kts 263°
2026-05-04 22:08 42.82048 -82.15494 5789 ft 239 kts 263°
2026-05-04 22:08 42.81911 -82.17752 5528 ft 238 kts 263°
2026-05-04 22:08 42.81773 -82.19995 5273 ft 237 kts 262°
2026-05-04 22:08 42.81636 -82.22237 5026 ft 238 kts 262°
2026-05-04 22:09 42.81500 -82.24483 4783 ft 238 kts 262°
2026-05-04 22:09 42.81362 -82.26731 4529 ft 238 kts 262°
2026-05-04 22:09 42.81224 -82.28943 4283 ft 237 kts 262°
2026-05-04 22:09 42.81087 -82.31172 4029 ft 236 kts 261°
2026-05-04 22:10 42.80948 -82.33403 3773 ft 236 kts 261°
2026-05-04 22:10 42.80810 -82.35647 3515 ft 238 kts 261°
2026-05-04 22:10 42.80671 -82.37895 3276 ft 239 kts 261°
2026-05-04 22:10 42.80530 -82.40137 3081 ft 237 kts 260°
2026-05-04 22:11 42.80237 -82.42334 2983 ft 233 kts 250°
2026-05-04 22:11 42.79591 -82.44226 2987 ft 213 kts 233°
2026-05-04 22:11 42.78756 -82.45807 2986 ft 199 kts 231°
2026-05-04 22:11 42.77947 -82.47277 2986 ft 195 kts 230°
2026-05-04 22:12 42.77142 -82.48758 2987 ft 194 kts 231°
2026-05-04 22:12 42.76329 -82.50230 2984 ft 195 kts 231°
2026-05-04 22:12 42.75504 -82.51698 2985 ft 196 kts 231°
2026-05-04 22:12 42.74683 -82.53169 2983 ft 194 kts 231°
2026-05-04 22:13 42.73869 -82.54644 2985 ft 195 kts 231°
2026-05-04 22:13 42.73051 -82.56123 2974 ft 196 kts 231°
2026-05-04 22:13 42.72230 -82.57603 2975 ft 196 kts 231°
2026-05-04 22:13 42.71416 -82.59057 2974 ft 196 kts 231°
2026-05-04 22:14 42.70644 -82.60580 2975 ft 195 kts 236°
2026-05-04 22:14 42.69930 -82.62141 2971 ft 194 kts 236°
2026-05-04 22:14 42.69213 -82.63718 2970 ft 197 kts 237°
2026-05-04 22:14 42.68731 -82.65459 2968 ft 199 kts 254°
2026-05-04 22:15 42.68555 -82.67332 2969 ft 201 kts 261°
2026-05-04 22:15 42.68482 -82.69238 2968 ft 202 kts 262°
2026-05-04 22:15 42.68430 -82.71151 2968 ft 203 kts 262°
2026-05-04 22:15 42.68386 -82.73071 2966 ft 203 kts 262°
2026-05-04 22:16 42.68338 -82.74987 2964 ft 203 kts 262°
2026-05-04 22:16 42.68293 -82.76897 2966 ft 205 kts 263°
2026-05-04 22:16 42.68239 -82.78841 2971 ft 206 kts 263°
2026-05-04 22:16 42.68190 -82.80779 2967 ft 203 kts 263°
2026-05-04 22:17 42.68138 -82.82699 2967 ft 203 kts 264°
2026-05-04 22:17 42.68089 -82.84610 2964 ft 201 kts 263°
2026-05-04 22:17 42.68046 -82.86503 2964 ft 200 kts 264°
2026-05-04 22:17 42.68002 -82.88385 2963 ft 199 kts 263°
2026-05-04 22:18 42.67954 -82.90259 2966 ft 202 kts 263°
2026-05-04 22:18 42.67905 -82.92176 2965 ft 202 kts 263°
2026-05-04 22:18 42.67856 -82.94091 2967 ft 203 kts 264°
2026-05-04 22:18 42.67805 -82.96005 2964 ft 202 kts 264°
2026-05-04 22:19 42.67756 -82.97895 2965 ft 203 kts 264°
2026-05-04 22:19 42.67705 -82.99816 2967 ft 203 kts 263°
2026-05-04 22:19 42.67654 -83.01734 2968 ft 202 kts 263°
2026-05-04 22:19 42.67602 -83.03648 2968 ft 204 kts 263°
2026-05-04 22:20 42.67550 -83.05585 2990 ft 205 kts 264°
2026-05-04 22:20 42.67497 -83.07522 2988 ft 206 kts 264°
2026-05-04 22:20 42.67445 -83.09452 2988 ft 202 kts 263°
2026-05-04 22:20 42.67393 -83.11337 2988 ft 201 kts 264°
2026-05-04 22:21 42.67342 -83.13207 2984 ft 191 kts 264°
2026-05-04 22:21 42.67293 -83.14994 2988 ft 187 kts 263°
2026-05-04 22:21 42.67244 -83.16740 2995 ft 181 kts 263°
2026-05-04 22:21 42.67196 -83.18433 2991 ft 178 kts 264°
2026-05-04 22:22 42.67148 -83.20114 2996 ft 178 kts 264°
2026-05-04 22:22 42.67100 -83.21796 2993 ft 177 kts 264°
2026-05-04 22:22 42.67052 -83.23462 2991 ft 176 kts 264°
2026-05-04 22:22 42.67004 -83.25118 2999 ft 179 kts 263°
2026-05-04 22:23 42.66955 -83.26814 2945 ft 177 kts 264°
2026-05-04 22:23 42.66910 -83.28437 2755 ft 166 kts 263°
2026-05-04 22:23 42.66865 -83.29979 2560 ft 161 kts 263°
2026-05-04 22:23 42.66821 -83.31469 2357 ft 154 kts 264°
2026-05-04 22:24 42.66780 -83.32873 2160 ft 142 kts 262°
2026-05-04 22:24 42.66743 -83.34154 1990 ft 127 kts 262°
2026-05-04 22:24 42.66710 -83.35291 1825 ft 115 kts 262°
2026-05-04 22:24 42.66678 -83.36345 1679 ft 109 kts 263°
2026-05-04 22:25 42.66645 -83.37393 1529 ft 112 kts 261°
2026-05-04 22:25 42.66614 -83.38461 1386 ft 114 kts 262°
2026-05-04 22:25 42.66575 -83.39524 1229 ft 114 kts 263°
2026-05-04 22:25 42.66542 -83.40596 1077 ft 113 kts 263°
2026-05-04 22:26 42.66515 -83.41639 983 ft 103 kts 262°
2026-05-04 22:26 42.66487 -83.42352 981 ft 47 kts 269°
2026-05-04 22:26 42.66482 -83.42655 985 ft 14 kts 255°
2026-05-04 22:26 42.66459 -83.42681 987 ft 1 kts 181°
2026-05-04 22:27 42.66464 -83.42680 989 ft 0 kts 182°
2026-05-04 22:27 42.66410 -83.42690 983 ft 10 kts 211°
2026-05-04 22:27 42.66357 -83.42745 988 ft 11 kts 187°
2026-05-04 22:27 42.66286 -83.42725 983 ft 11 kts 113°
2026-05-04 22:28 42.66302 -83.42658 985 ft 2 kts 356°